Weather History for Smyrna, TN

Change the Weather History Date:

Wednesday, October 16, 2013

  Actual Average Record
Temperature  
Mean Temperature 66 °F -  
Max Temperature 70 °F 67 °F 86 °F (2011)
Min Temperature 61 °F 49 °F 38 °F (2010)
Growing Degree Days 16 (Base 50)    
Moisture  
Dew Point 63 °F    
Average Humidity 94    
Maximum Humidity 100    
Minimum Humidity 78    
Precipitation  
Precipitation 0.00 in - - ()
Sea Level Pressure  
Sea Level Pressure 29.98 in    
Wind  
Wind Speed 5 mph (East)    
Max Wind Speed 13 mph    
Max Gust Speed -    
Visibility 5 miles    
Events Rain    
Averages and records for this station are not official NWS values.
T = Trace of Precipitation, MM = Missing Value Source: NWS Daily Summary

Daily Weather History Graph

Daily Weather History Graph

Search for Another Location

Airport:

Trip Planner

Search our weather history database for the weather conditions in past years. The results will help you decide how hot, cold, wet, or windy it might be!

Date:

Astronomy

Oct. 16, 2013 Rise Set
Actual Time 6:53 AM CDT 6:08 PM CDT
Civil Twilight 6:28 AM CDT 6:34 PM CDT
Nautical Twilight 5:58 AM CDT 7:04 PM CDT
Astronomical Twilight 5:28 AM CDT 7:33 PM CDT
Moon 4:44 PM CDT (10/16) 4:25 AM CDT (10/16)
Length of Visible Light 12h 06m
Length of Day
11h 14m
Waxing Gibbous, 94% of the Moon is Illuminated
Oct 16
Waxing Gibbous
Oct 18
Full
Oct 26
Last Quarter
Nov 3
New
Nov 9
First Quarter

Hourly Weather History & Observations

Time (CDT) Temp. Dew Point Humidity Pressure Visibility Wind Dir Wind Speed Gust Speed Precip Events Conditions
12:56 AM 64.9 °F 59.0 °F 81% 30.03 in 10.0 mi Calm Calm - N/A   Partly Cloudy
1:56 AM 64.9 °F 59.9 °F 84% 30.03 in 10.0 mi South 5.8 mph - N/A   Overcast
2:56 AM 64.9 °F 59.9 °F 84% 30.01 in 10.0 mi South 5.8 mph - N/A   Mostly Cloudy
3:56 AM 64.9 °F 59.9 °F 84% 30.01 in 10.0 mi South 4.6 mph - N/A   Mostly Cloudy
4:56 AM 64.9 °F 59.9 °F 84% 30.01 in 10.0 mi Calm Calm - N/A   Scattered Clouds
5:56 AM 64.9 °F 59.9 °F 84% 30.02 in 10.0 mi SSE 5.8 mph - N/A   Overcast
6:56 AM 64.9 °F 59.9 °F 84% 30.03 in 10.0 mi South 4.6 mph - N/A   Overcast
7:45 AM 64.4 °F 60.8 °F 88% 30.02 in 10.0 mi South 4.6 mph - 0.00 in   Overcast
7:56 AM 64.9 °F 61.0 °F 87% 30.05 in 10.0 mi South 5.8 mph - 0.00 in   Overcast
8:56 AM 63.9 °F 61.9 °F 93% 30.04 in 10.0 mi South 5.8 mph - 0.00 in   Overcast
9:43 AM 64.4 °F 62.6 °F 94% 30.02 in 10.0 mi South 5.8 mph - N/A   Overcast
9:56 AM 65.8 °F 63.0 °F 90% 30.04 in 10.0 mi Variable 6.9 mph - N/A   Overcast
10:41 AM 66.2 °F 62.6 °F 88% 30.02 in 10.0 mi Variable 5.8 mph - N/A   Overcast
10:56 AM 66.9 °F 63.0 °F 87% 30.05 in 10.0 mi SW 11.5 mph - N/A   Overcast
11:56 AM 68.9 °F 63.0 °F 81% 30.04 in 10.0 mi SSW 8.1 mph - N/A   Overcast
12:05 PM 69.8 °F 62.6 °F 78% 30.01 in 10.0 mi SSW 8.1 mph - N/A   Overcast
12:45 PM 69.8 °F 64.4 °F 83% 29.99 in 10.0 mi South 5.8 mph - N/A   Mostly Cloudy
12:56 PM 70.0 °F 63.9 °F 81% 30.01 in 10.0 mi South 8.1 mph - N/A   Scattered Clouds
1:21 PM 69.8 °F 64.4 °F 83% 29.98 in 10.0 mi SSW 9.2 mph - N/A   Mostly Cloudy
1:56 PM 68.9 °F 63.0 °F 81% 29.99 in 10.0 mi SSW 4.6 mph - N/A   Mostly Cloudy
2:56 PM 68.0 °F 63.9 °F 87% 29.99 in 10.0 mi South 4.6 mph - 0.00 in Rain Light Rain
3:49 PM 66.2 °F 64.4 °F 94% 29.95 in 2.5 mi SSE 5.8 mph - 0.00 in Rain Light Rain
3:56 PM 65.8 °F 64.9 °F 97% 29.97 in 2.0 mi SSE 6.9 mph - 0.00 in Rain Light Rain
4:13 PM 66.2 °F 64.4 °F 94% 29.96 in 2.5 mi Calm Calm - 0.00 in Rain Light Rain
4:28 PM 66.2 °F 64.4 °F 94% 29.94 in 1.2 mi SSE 4.6 mph - 0.00 in Rain Rain
4:43 PM 66.2 °F 64.4 °F 94% 29.95 in 1.8 mi ESE 3.5 mph - 0.00 in Rain Light Rain
4:56 PM 65.8 °F 64.9 °F 97% 29.97 in 2.0 mi Calm Calm - 0.00 in Rain Rain
5:04 PM 64.4 °F 64.4 °F 100% 29.95 in 2.5 mi Calm Calm - 0.00 in Rain Rain
5:11 PM 66.2 °F 66.2 °F 100% 29.94 in 2.0 mi ENE 4.6 mph - 0.00 in Rain Rain
5:17 PM 66.2 °F 66.2 °F 100% 29.95 in 1.2 mi Calm Calm - 0.00 in Rain Rain
5:25 PM 66.2 °F 66.2 °F 100% 29.95 in 1.0 mi ENE 3.5 mph - 0.00 in Rain Rain
5:37 PM 64.4 °F 64.4 °F 100% 29.94 in 1.2 mi East 3.5 mph - 0.00 in Rain Rain
5:49 PM 66.2 °F 66.2 °F 100% 29.95 in 2.0 mi East 3.5 mph - 0.00 in Rain Rain
5:56 PM 64.9 °F 64.9 °F 100% 29.97 in 2.5 mi East 3.5 mph - 0.00 in Rain Rain
6:12 PM 64.4 °F 64.4 °F 100% 29.95 in 3.0 mi ENE 3.5 mph - 0.00 in Rain Light Rain
6:17 PM 64.4 °F 64.4 °F 100% 29.95 in 3.0 mi ENE 3.5 mph - 0.00 in Rain Light Rain
6:24 PM 64.4 °F 64.4 °F 100% 29.95 in 2.0 mi Calm Calm - 0.00 in Rain Light Rain
6:37 PM 64.4 °F 64.4 °F 100% 29.95 in 1.5 mi NE 3.5 mph - 0.00 in Rain Rain
6:56 PM 64.9 °F 64.9 °F 100% 29.98 in 1.5 mi North 11.5 mph - 0.00 in Rain Rain
7:02 PM 64.4 °F 64.4 °F 100% 29.96 in 1.2 mi North 11.5 mph - 0.00 in Rain Light Rain
7:08 PM 62.6 °F 62.6 °F 100% 29.96 in 1.5 mi North 12.7 mph - 0.00 in Rain Light Rain
7:14 PM 62.6 °F 62.6 °F 100% 29.96 in 2.0 mi North 11.5 mph - 0.00 in Rain Light Rain
7:29 PM 62.6 °F 62.6 °F 100% 29.96 in 2.5 mi North 10.4 mph - 0.00 in Rain Light Rain
7:41 PM 62.6 °F 62.6 °F 100% 29.96 in 3.0 mi North 8.1 mph - 0.00 in Rain Light Rain
7:56 PM 63.0 °F 63.0 °F 100% 29.99 in 3.0 mi North 6.9 mph - 0.00 in Rain Light Rain
8:56 PM 63.0 °F 63.0 °F 100% 29.99 in 3.0 mi North 6.9 mph - 0.00 in   Overcast
9:16 PM 62.6 °F 62.6 °F 100% 29.97 in 2.5 mi North 6.9 mph - N/A   Overcast
9:56 PM 61.9 °F 61.9 °F 100% 30.00 in 1.8 mi North 8.1 mph - 0.00 in Rain Light Rain
10:10 PM 62.6 °F 62.6 °F 100% 29.97 in 1.8 mi North 5.8 mph - 0.00 in Rain Light Rain
10:20 PM 62.6 °F 62.6 °F 100% 29.97 in 2.0 mi North 5.8 mph - 0.00 in Rain Light Rain
10:28 PM 62.6 °F 62.6 °F 100% 29.97 in 2.5 mi North 4.6 mph - 0.00 in   Overcast
10:42 PM 62.6 °F 62.6 °F 100% 29.97 in 3.0 mi North 5.8 mph - 0.00 in   Overcast
10:56 PM 61.9 °F 61.9 °F 100% 29.99 in 2.5 mi North 4.6 mph - 0.00 in   Overcast
11:05 PM 62.6 °F 62.6 °F 100% 29.96 in 3.0 mi North 4.6 mph - N/A   Overcast
11:45 PM 62.6 °F 62.6 °F 100% 29.96 in 9.0 mi North 3.5 mph - N/A   Overcast
11:56 PM 61.9 °F 61.9 °F 100% 29.97 in 10.0 mi North 4.6 mph - N/A   Overcast